| time (UTC) | temp F | wind direction | speed knots | gust knots | rain 1hr in | rain 24hr in | rain mn in | humidity % | barometer mb |
| 20260906052252 | 78 | 357 | 0.0 | 0.0 | 0.00 | 0.00 | 0.00 | 91 | 1012.1 |
| 20260906051750 | 78 | 357 | 0.0 | 0.0 | 0.00 | 0.00 | 0.00 | 90 | 1012.1 |
| 20260906051249 | 78 | 357 | 0.0 | 0.0 | 0.00 | 0.00 | 0.00 | 90 | 1012.2 |
| 20260906050744 | 78 | 357 | 0.0 | 0.0 | 0.00 | 0.00 | 0.00 | 89 | 1012.2 |
| 20260906050239 | 78 | 357 | 0.0 | 0.0 | 0.00 | 0.00 | 0.00 | 89 | 1012.2 |
| 20260906045738 | 79 | 357 | 0.0 | 0.0 | 0.00 | 0.00 | 0.00 | 88 | 1012.1 |
| 20260906045233 | 79 | 357 | 0.0 | 0.0 | 0.00 | 0.00 | 0.00 | 89 | 1012.2 |
| 20260906044729 | 79 | 357 | 0.0 | 0.0 | 0.00 | 0.00 | 0.00 | 88 | 1012.2 |
| 20260906044224 | 79 | 357 | 0.0 | 0.0 | 0.00 | 0.00 | 0.00 | 88 | 1012.2 |
| 20260906043720 | 79 | 357 | 0.0 | 0.0 | 0.00 | 0.00 | 0.00 | 88 | 1012.2 |
| 20260906043216 | 79 | 357 | 0.0 | 0.0 | 0.00 | 0.00 | 0.00 | 87 | 1012.2 |
| 20260906042715 | 80 | 357 | 0.0 | 0.0 | 0.00 | 0.00 | 0.00 | 87 | 1012.3 |
| 20260906042208 | 79 | 357 | 0.0 | 0.0 | 0.00 | 0.00 | 0.00 | 87 | 1012.1 |
| 20260906041705 | 79 | 357 | 0.0 | 0.0 | 0.00 | 0.00 | 0.00 | 87 | 1012.2 |
| 20260906041205 | 80 | 357 | 0.0 | 0.0 | 0.00 | 0.00 | 0.00 | 86 | 1012.1 |
| 20260906040700 | 80 | 357 | 0.0 | 0.9 | 0.00 | 0.00 | 0.00 | 86 | 1012.0 |
| 20260906040155 | 80 | 357 | 0.0 | 0.0 | 0.00 | 0.00 | 0.00 | 84 | 1012.1 |
| 20260906035651 | 80 | 357 | 0.0 | 0.0 | 0.00 | 0.00 | 0.00 | 84 | 1012.3 |
| 20260906035146 | 80 | 357 | 0.0 | 0.0 | 0.00 | 0.00 | 0.00 | 84 | 1012.3 |
| 20260906034642 | 80 | 357 | 0.0 | 0.0 | 0.00 | 0.00 | 0.00 | 85 | 1012.3 |
| 20260906034142 | 80 | 357 | 0.0 | 0.0 | 0.00 | 0.00 | 0.00 | 84 | 1012.2 |
| 20260906033638 | 80 | 357 | 0.0 | 0.0 | 0.00 | 0.00 | 0.00 | 85 | 1012.3 |
| 20260906033137 | 80 | 357 | 0.0 | 0.0 | 0.00 | 0.00 | 0.00 | 86 | 1012.1 |
| 20260906032635 | 80 | 357 | 0.0 | 0.0 | 0.00 | 0.00 | 0.00 | 85 | 1012.4 |
| 20260906032134 | 81 | 357 | 0.0 | 0.0 | 0.00 | 0.00 | 0.00 | 85 | 1012.2 |
| 20260906031629 | 81 | 357 | 0.0 | 0.0 | 0.00 | 0.00 | 0.00 | 85 | 1011.9 |
| 20260906031125 | 81 | 357 | 0.0 | 0.0 | 0.00 | 0.00 | 0.00 | 84 | 1012.0 |
| 20260906030624 | 81 | 358 | 0.0 | 0.0 | 0.00 | 0.00 | 0.00 | 84 | 1012.0 |
| 20260906030120 | 81 | 355 | 0.0 | 0.0 | 0.00 | 0.00 | 0.00 | 84 | 1012.0 |
| 20260906025619 | 81 | 347 | 0.0 | 0.0 | 0.00 | 0.00 | 0.00 | 84 | 1011.9 |
| 20260906025118 | 81 | 333 | 0.0 | 0.0 | 0.00 | 0.00 | 0.00 | 84 | 1011.9 |
| 20260906024613 | 81 | 334 | 0.0 | 0.0 | 0.00 | 0.00 | 0.00 | 83 | 1011.9 |
| 20260906024107 | 82 | 307 | 0.0 | 0.0 | 0.00 | 0.00 | 0.00 | 83 | 1011.9 |
| 20260906023604 | 82 | 307 | 0.0 | 0.0 | 0.00 | 0.00 | 0.00 | 81 | 1011.8 |
| 20260906023103 | 82 | 307 | 0.0 | 0.0 | 0.00 | 0.00 | 0.00 | 80 | 1011.8 |
| 20260906022559 | 82 | 307 | 0.0 | 0.0 | 0.00 | 0.00 | 0.00 | 80 | 1011.7 |
| 20260906022054 | 82 | 307 | 0.0 | 0.0 | 0.00 | 0.00 | 0.00 | 79 | 1011.8 |
| 20260906021550 | 83 | 307 | 0.0 | 0.0 | 0.00 | 0.00 | 0.00 | 79 | 1011.7 |
| 20260906021048 | 83 | 307 | 0.0 | 0.0 | 0.00 | 0.00 | 0.00 | 78 | 1011.6 |
| 20260906020548 | 83 | 307 | 0.0 | 0.0 | 0.00 | 0.00 | 0.00 | 78 | 1011.4 |
| 20260906020048 | 83 | 307 | 0.0 | 0.0 | 0.00 | 0.00 | 0.00 | 77 | 1011.6 |
| 20260906015548 | 83 | 307 | 0.0 | 0.0 | 0.00 | 0.00 | 0.00 | 77 | 1011.7 |
| 20260906015047 | 83 | 307 | 0.0 | 0.0 | 0.00 | 0.00 | 0.00 | 76 | 1011.5 |
| 20260906014542 | 84 | 307 | 0.0 | 0.0 | 0.00 | 0.00 | 0.00 | 76 | 1011.1 |
| 20260906014038 | 84 | 307 | 0.0 | 0.0 | 0.00 | 0.00 | 0.00 | 75 | 1011.2 |
| 20260906013533 | 85 | 307 | 0.0 | 0.0 | 0.00 | 0.00 | 0.00 | 74 | 1011.2 |
| 20260906013029 | 85 | 307 | 0.0 | 0.0 | 0.00 | 0.00 | 0.00 | 72 | 1011.3 |
| 20260906012524 | 86 | 307 | 0.0 | 0.0 | 0.00 | 0.00 | 0.00 | 72 | 1011.3 |
| 20260906012023 | 86 | 307 | 0.0 | 0.0 | 0.00 | 0.00 | 0.00 | 71 | 1011.2 |
| 20260906011519 | 86 | 307 | 0.0 | 0.0 | 0.00 | 0.00 | 0.00 | 70 | 1011.1 |
| 20260906011019 | 87 | 307 | 0.0 | 0.0 | 0.00 | 0.00 | 0.00 | 69 | 1011.1 |
| 20260906010514 | 87 | 307 | 0.0 | 0.0 | 0.00 | 0.00 | 0.00 | 68 | 1011.0 |
| 20260906010011 | 87 | 307 | 0.0 | 0.0 | 0.00 | 0.00 | 0.00 | 68 | 1010.8 |
| 20260906005509 | 87 | 307 | 0.0 | 0.0 | 0.00 | 0.00 | 0.00 | 67 | 1010.9 |
| 20260906005008 | 87 | 307 | 0.0 | 0.0 | 0.00 | 0.00 | 0.00 | 66 | 1010.8 |
| 20260906004503 | 88 | 307 | 0.0 | 0.0 | 0.00 | 0.00 | 0.00 | 66 | 1010.7 |
| 20260906003958 | 88 | 307 | 0.0 | 0.0 | 0.00 | 0.00 | 0.00 | 66 | 1010.5 |
| 20260906003453 | 89 | 307 | 0.0 | 0.0 | 0.00 | 0.00 | 0.00 | 65 | 1010.6 |
| 20260906002949 | 89 | 307 | 0.0 | 0.0 | 0.00 | 0.00 | 0.00 | 64 | 1010.8 |
| 20260906002448 | 89 | 307 | 0.0 | 0.0 | 0.00 | 0.00 | 0.00 | 63 | 1010.8 |
| 20260906001944 | 90 | 307 | 0.0 | 0.0 | 0.00 | 0.00 | 0.00 | 63 | 1010.6 |
| 20260906001440 | 91 | 307 | 0.0 | 0.0 | 0.00 | 0.00 | 0.00 | 62 | 1010.8 |
| 20260906000934 | 91 | 307 | 0.0 | 0.0 | 0.00 | 0.00 | 0.00 | 61 | 1010.8 |
| 20260906000430 | 92 | 307 | 0.0 | 0.0 | 0.00 | 0.00 | 0.00 | 61 | 1010.9 |
| 20260905235925 | 93 | 307 | 0.0 | 0.0 | 0.00 | 0.00 | 0.00 | 59 | 1010.8 |
| 20260905235424 | 93 | 307 | 0.0 | 0.0 | 0.00 | 0.00 | 0.00 | 57 | 1010.8 |
| 20260905234920 | 95 | 306 | 0.0 | 0.0 | 0.00 | 0.00 | 0.00 | 55 | 1011.0 |
| 20260905234415 | 96 | 306 | 0.0 | 0.0 | 0.00 | 0.00 | 0.00 | 52 | 1010.8 |
| 20260905233915 | 97 | 306 | 0.0 | 0.0 | 0.00 | 0.00 | 0.00 | 51 | 1011.0 |
| 20260905233410 | 98 | 306 | 0.0 | 0.0 | 0.00 | 0.00 | 0.00 | 50 | 1010.9 |
| 20260905232909 | 97 | 306 | 0.0 | 0.0 | 0.00 | 0.00 | 0.00 | 50 | 1010.8 |
| 20260905232405 | 98 | 341 | 0.0 | 0.0 | 0.00 | 0.00 | 0.00 | 49 | 1010.7 |
| 20260905231901 | 98 | 341 | 0.9 | 0.9 | 0.00 | 0.00 | 0.00 | 48 | 1010.9 |
| 20260905231356 | 99 | 334 | 0.0 | 0.0 | 0.00 | 0.00 | 0.00 | 48 | 1010.7 |
| 20260905230853 | 99 | 335 | 0.9 | 0.9 | 0.00 | 0.00 | 0.00 | 47 | 1010.8 |
| 20260905230350 | 100 | 59 | 1.7 | 1.7 | 0.00 | 0.00 | 0.00 | 46 | 1010.7 |
| 20260905225844 | 100 | 352 | 0.9 | 1.7 | 0.00 | 0.00 | 0.00 | 46 | 1011.0 |
| 20260905225339 | 101 | 2 | 0.0 | 0.0 | 0.00 | 0.00 | 0.00 | 45 | 1010.8 |
| 20260905224834 | 100 | 3 | 0.0 | 0.0 | 0.00 | 0.00 | 0.00 | 45 | 1010.7 |
| 20260905224330 | 100 | 355 | 0.9 | 1.7 | 0.00 | 0.00 | 0.00 | 45 | 1010.9 |
| 20260905223830 | 101 | 42 | 0.9 | 0.9 | 0.00 | 0.00 | 0.00 | 44 | 1011.0 |
| 20260905223328 | 101 | 285 | 0.9 | 0.9 | 0.00 | 0.00 | 0.00 | 44 | 1010.8 |
| 20260905222822 | 101 | 45 | 0.9 | 0.9 | 0.00 | 0.00 | 0.00 | 45 | 1011.0 |
| 20260905222321 | 100 | 347 | 0.0 | 0.0 | 0.00 | 0.00 | 0.00 | 45 | 1010.8 |
| 20260905221818 | 100 | 346 | 0.9 | 0.9 | 0.00 | 0.00 | 0.00 | 45 | 1011.1 |
| 20260905221314 | 101 | 339 | 0.9 | 0.9 | 0.00 | 0.00 | 0.00 | 45 | 1011.1 |
| 20260905220810 | 101 | 334 | 1.7 | 2.6 | 0.00 | 0.00 | 0.00 | 44 | 1011.1 |
| 20260905220306 | 101 | 347 | 0.9 | 0.9 | 0.00 | 0.00 | 0.00 | 44 | 1010.9 |
| 20260905215805 | 101 | 331 | 0.9 | 0.9 | 0.00 | 0.00 | 0.00 | 44 | 1010.8 |
| 20260905215301 | 102 | 339 | 0.0 | 0.9 | 0.00 | 0.00 | 0.00 | 44 | 1010.8 |
| 20260905214756 | 102 | 303 | 0.9 | 0.9 | 0.00 | 0.00 | 0.00 | 44 | 1010.8 |
| 20260905214252 | 102 | 346 | 0.9 | 1.7 | 0.00 | 0.00 | 0.00 | 45 | 1010.8 |
| 20260905213747 | 102 | 224 | 0.9 | 2.6 | 0.00 | 0.00 | 0.00 | 44 | 1011.0 |
| 20260905213243 | 102 | 315 | 0.0 | 0.0 | 0.00 | 0.00 | 0.00 | 43 | 1011.2 |
| 20260905212738 | 101 | 342 | 0.0 | 0.9 | 0.00 | 0.00 | 0.00 | 44 | 1011.1 |
| 20260905212238 | 101 | 265 | 0.9 | 0.9 | 0.00 | 0.00 | 0.00 | 43 | 1011.1 |
| 20260905211737 | 102 | 357 | 0.9 | 0.9 | 0.00 | 0.00 | 0.00 | 43 | 1011.2 |
| 20260905211232 | 103 | 340 | 0.9 | 1.7 | 0.00 | 0.00 | 0.00 | 41 | 1011.0 |
| 20260905210729 | 102 | 77 | 0.9 | 1.7 | 0.00 | 0.00 | 0.00 | 42 | 1011.0 |
| 20260905210229 | 101 | 27 | 0.9 | 0.9 | 0.00 | 0.00 | 0.00 | 44 | 1011.2 |
| 20260905205727 | 102 | 18 | 0.0 | 0.0 | 0.00 | 0.00 | 0.00 | 43 | 1011.2 |
| 20260905205223 | 103 | 347 | 0.9 | 1.7 | 0.00 | 0.00 | 0.00 | 41 | 1011.1 |
| 20260905204722 | 105 | 258 | 0.9 | 0.9 | 0.00 | 0.00 | 0.00 | 40 | 1011.3 |
| 20260905204218 | 105 | 341 | 0.0 | 0.0 | 0.00 | 0.00 | 0.00 | 41 | 1011.5 |
| 20260905203717 | 104 | 6 | 0.0 | 0.0 | 0.00 | 0.00 | 0.00 | 40 | 1011.3 |
| 20260905203214 | 102 | 265 | 1.7 | 2.6 | 0.00 | 0.00 | 0.00 | 42 | 1011.4 |
| 20260905202709 | 103 | 294 | 0.9 | 0.9 | 0.00 | 0.00 | 0.00 | 41 | 1011.3 |
| 20260905202209 | 101 | 11 | 1.7 | 1.7 | 0.00 | 0.00 | 0.00 | 41 | 1011.6 |
| 20260905201705 | 100 | 346 | 1.7 | 1.7 | 0.00 | 0.00 | 0.00 | 44 | 1011.7 |
| 20260905201205 | 102 | 87 | 1.7 | 5.2 | 0.00 | 0.00 | 0.00 | 42 | 1011.6 |
| 20260905200700 | 100 | 325 | 0.9 | 0.9 | 0.00 | 0.00 | 0.00 | 46 | 1011.9 |
| 20260905200155 | 101 | 311 | 0.9 | 1.7 | 0.00 | 0.00 | 0.00 | 43 | 1011.9 |
| 20260905195653 | 103 | 266 | 0.9 | 0.9 | 0.00 | 0.00 | 0.00 | 43 | 1012.0 |
| 20260905195149 | 104 | 300 | 0.0 | 0.0 | 0.00 | 0.00 | 0.00 | 42 | 1012.0 |
| 20260905194644 | 103 | 52 | 3.5 | 3.5 | 0.00 | 0.00 | 0.00 | 43 | 1012.1 |
| 20260905194144 | 104 | 42 | 1.7 | 1.7 | 0.00 | 0.00 | 0.00 | 43 | 1012.2 |
| 20260905193638 | 103 | 281 | 0.9 | 1.7 | 0.00 | 0.00 | 0.00 | 42 | 1012.4 |
| 20260905193139 | 101 | 238 | 1.7 | 1.7 | 0.00 | 0.00 | 0.00 | 44 | 1012.4 |
| 20260905192634 | 98 | 318 | 0.0 | 0.0 | 0.00 | 0.00 | 0.00 | 47 | 1012.7 |
| 20260905192131 | 99 | 333 | 0.0 | 0.9 | 0.00 | 0.00 | 0.00 | 47 | 1012.8 |
| 20260905191630 | 98 | 277 | 0.9 | 2.6 | 0.00 | 0.00 | 0.00 | 48 | 1012.8 |
| 20260905191128 | 99 | 336 | 0.9 | 0.9 | 0.00 | 0.00 | 0.00 | 48 | 1012.9 |
| 20260905190627 | 102 | 313 | 1.7 | 1.7 | 0.00 | 0.00 | 0.00 | 45 | 1013.0 |
| 20260905190126 | 102 | 331 | 0.9 | 0.9 | 0.00 | 0.00 | 0.00 | 46 | 1012.9 |
| 20260905185626 | 100 | 197 | 1.7 | 1.7 | 0.00 | 0.00 | 0.00 | 46 | 1013.0 |
| 20260905185126 | 98 | 356 | 0.0 | 0.9 | 0.00 | 0.00 | 0.00 | 48 | 1013.3 |
| 20260905184620 | 97 | 341 | 0.0 | 0.9 | 0.00 | 0.00 | 0.00 | 49 | 1013.3 |
| 20260905184119 | 99 | 107 | 1.7 | 2.6 | 0.00 | 0.00 | 0.00 | 48 | 1013.3 |
| 20260905183618 | 101 | 350 | 0.9 | 1.7 | 0.00 | 0.00 | 0.00 | 45 | 1013.4 |
| 20260905183114 | 103 | 345 | 0.9 | 1.7 | 0.00 | 0.00 | 0.00 | 45 | 1013.1 |
| 20260905182613 | 103 | 3 | 0.0 | 0.9 | 0.00 | 0.00 | 0.00 | 45 | 1013.4 |
| 20260905182108 | 102 | 349 | 0.9 | 0.9 | 0.00 | 0.00 | 0.00 | 46 | 1013.3 |
| 20260905181608 | 102 | 332 | 0.9 | 0.9 | 0.00 | 0.00 | 0.00 | 46 | 1013.3 |
| 20260905181107 | 102 | 16 | 0.0 | 0.0 | 0.00 | 0.00 | 0.00 | 45 | 1013.6 |
| 20260905180602 | 100 | 238 | 1.7 | 2.6 | 0.00 | 0.00 | 0.00 | 48 | 1013.5 |
| 20260905180057 | 100 | 318 | 0.9 | 0.9 | 0.00 | 0.00 | 0.00 | 47 | 1013.5 |
| 20260905175556 | 99 | 345 | 3.5 | 5.2 | 0.00 | 0.00 | 0.00 | 49 | 1013.7 |
| 20260905175052 | 101 | 302 | 1.7 | 2.6 | 0.00 | 0.00 | 0.00 | 47 | 1013.6 |
| 20260905174548 | 98 | 33 | 1.7 | 2.6 | 0.00 | 0.00 | 0.00 | 49 | 1013.5 |
| 20260905174043 | 100 | 7 | 0.9 | 0.9 | 0.00 | 0.00 | 0.00 | 47 | 1013.8 |
| 20260905173540 | 99 | 246 | 1.7 | 2.6 | 0.00 | 0.00 | 0.00 | 48 | 1013.7 |
| 20260905173035 | 96 | 321 | 0.0 | 0.9 | 0.00 | 0.00 | 0.00 | 50 | 1013.7 |
| 20260905172533 | 98 | 72 | 1.7 | 2.6 | 0.00 | 0.00 | 0.00 | 48 | 1013.9 |
| 20260905172029 | 98 | 355 | 0.9 | 0.9 | 0.00 | 0.00 | 0.00 | 50 | 1013.9 |
| 20260905171525 | 98 | 350 | 0.0 | 0.9 | 0.00 | 0.00 | 0.00 | 50 | 1014.1 |
| 20260905171021 | 99 | 196 | 1.7 | 1.7 | 0.00 | 0.00 | 0.00 | 50 | 1013.9 |
| 20260905170517 | 96 | 180 | 1.7 | 1.7 | 0.00 | 0.00 | 0.00 | 51 | 1014.1 |
| 20260905170012 | 99 | 349 | 1.7 | 2.6 | 0.00 | 0.00 | 0.00 | 49 | 1014.1 |
| 20260905165507 | 99 | 351 | 0.9 | 0.9 | 0.00 | 0.00 | 0.00 | 48 | 1014.0 |
| 20260905165002 | 100 | 242 | 1.7 | 2.6 | 0.00 | 0.00 | 0.00 | 48 | 1014.3 |
| 20260905164501 | 99 | 3 | 0.9 | 1.7 | 0.00 | 0.00 | 0.00 | 50 | 1014.4 |
| 20260905163956 | 99 | 46 | 1.7 | 2.6 | 0.00 | 0.00 | 0.00 | 48 | 1014.5 |
| 20260905163453 | 97 | 158 | 2.6 | 3.5 | 0.00 | 0.00 | 0.00 | 50 | 1014.6 |
| 20260905162948 | 98 | 320 | 0.0 | 0.9 | 0.00 | 0.00 | 0.00 | 49 | 1014.7 |
| 20260905162444 | 97 | 13 | 0.9 | 0.9 | 0.00 | 0.00 | 0.00 | 52 | 1014.5 |
| 20260905161938 | 97 | 17 | 0.0 | 0.9 | 0.00 | 0.00 | 0.00 | 51 | 1014.7 |
| 20260905161437 | 97 | 17 | 1.7 | 1.7 | 0.00 | 0.00 | 0.00 | 51 | 1014.6 |
| 20260905160936 | 97 | 88 | 2.6 | 3.5 | 0.00 | 0.00 | 0.00 | 52 | 1014.6 |
| 20260905160430 | 95 | 317 | 0.0 | 0.0 | 0.00 | 0.00 | 0.00 | 55 | 1014.9 |
| 20260905155929 | 95 | 41 | 1.7 | 1.7 | 0.00 | 0.00 | 0.00 | 54 | 1014.8 |
| 20260905155424 | 93 | 354 | 0.0 | 0.0 | 0.00 | 0.00 | 0.00 | 56 | 1014.6 |
| 20260905154923 | 95 | 286 | 0.9 | 1.7 | 0.00 | 0.00 | 0.00 | 55 | 1014.9 |
| 20260905154419 | 95 | 339 | 0.9 | 0.9 | 0.00 | 0.00 | 0.00 | 56 | 1014.8 |
| 20260905153914 | 95 | 348 | 0.9 | 0.9 | 0.00 | 0.00 | 0.00 | 55 | 1014.7 |
| 20260905153410 | 94 | 309 | 0.9 | 0.9 | 0.00 | 0.00 | 0.00 | 58 | 1014.9 |
| 20260905152910 | 92 | 12 | 0.0 | 0.0 | 0.00 | 0.00 | 0.00 | 60 | 1015.0 |
| 20260905152409 | 91 | 271 | 0.9 | 0.9 | 0.00 | 0.00 | 0.00 | 61 | 1014.9 |
| 20260905151904 | 91 | 285 | 0.9 | 0.9 | 0.00 | 0.00 | 0.00 | 62 | 1014.9 |
| 20260905151400 | 91 | 306 | 0.0 | 0.9 | 0.00 | 0.00 | 0.00 | 65 | 1014.8 |
| 20260905150855 | 90 | 268 | 0.0 | 0.0 | 0.00 | 0.00 | 0.00 | 68 | 1015.0 |
| 20260905150354 | 89 | 281 | 0.9 | 0.9 | 0.00 | 0.00 | 0.00 | 66 | 1014.7 |
| 20260905145851 | 89 | 1 | 0.9 | 1.7 | 0.00 | 0.00 | 0.00 | 66 | 1014.9 |
| 20260905145346 | 89 | 323 | 0.9 | 0.9 | 0.00 | 0.00 | 0.00 | 66 | 1014.7 |
| 20260905144845 | 88 | 329 | 0.0 | 0.0 | 0.00 | 0.00 | 0.00 | 70 | 1014.7 |
| 20260905144341 | 88 | 271 | 0.9 | 0.9 | 0.00 | 0.00 | 0.00 | 71 | 1014.9 |
| 20260905143839 | 88 | 188 | 1.7 | 1.7 | 0.00 | 0.00 | 0.00 | 70 | 1015.0 |
| 20260905143334 | 88 | 71 | 2.6 | 2.6 | 0.00 | 0.00 | 0.00 | 70 | 1015.1 |
| 20260905142833 | 89 | 286 | 0.9 | 0.9 | 0.00 | 0.00 | 0.00 | 69 | 1014.7 |
| 20260905142327 | 87 | 331 | 0.0 | 0.0 | 0.00 | 0.00 | 0.00 | 71 | 1015.0 |
| 20260905141823 | 87 | 1 | 0.0 | 0.0 | 0.00 | 0.00 | 0.00 | 72 | 1015.0 |
| 20260905141319 | 87 | 358 | 0.0 | 0.9 | 0.00 | 0.00 | 0.00 | 73 | 1015.0 |
| 20260905140814 | 87 | 346 | 0.9 | 0.9 | 0.00 | 0.00 | 0.00 | 73 | 1015.0 |
| 20260905140314 | 85 | 1 | 0.0 | 0.0 | 0.00 | 0.00 | 0.00 | 76 | 1015.0 |
| 20260905135812 | 84 | 357 | 0.9 | 0.9 | 0.00 | 0.00 | 0.00 | 77 | 1014.7 |
| 20260905135309 | 85 | 64 | 1.7 | 2.6 | 0.00 | 0.00 | 0.00 | 77 | 1015.0 |
| 20260905134804 | 84 | 338 | 0.0 | 0.0 | 0.00 | 0.00 | 0.00 | 78 | 1015.0 |
| 20260905134302 | 84 | 53 | 0.0 | 0.9 | 0.00 | 0.00 | 0.00 | 78 | 1014.8 |
| 20260905133757 | 86 | 59 | 0.9 | 1.7 | 0.00 | 0.00 | 0.00 | 75 | 1014.9 |
| 20260905133252 | 84 | 338 | 0.0 | 0.0 | 0.00 | 0.00 | 0.00 | 77 | 1014.8 |
| 20260905132751 | 84 | 357 | 0.0 | 0.0 | 0.00 | 0.00 | 0.00 | 79 | 1015.0 |
| 20260905132247 | 84 | 2 | 0.0 | 0.0 | 0.00 | 0.00 | 0.00 | 78 | 1014.7 |
| 20260905131742 | 83 | 4 | 0.0 | 0.9 | 0.00 | 0.00 | 0.00 | 80 | 1014.9 |
| 20260905131238 | 82 | 8 | 0.0 | 0.0 | 0.00 | 0.00 | 0.00 | 80 | 1014.7 |
| 20260905130737 | 82 | 1 | 0.0 | 0.0 | 0.00 | 0.00 | 0.00 | 82 | 1014.6 |
| 20260905130237 | 81 | 359 | 0.0 | 0.9 | 0.00 | 0.00 | 0.00 | 82 | 1015.0 |
| 20260905125732 | 79 | 352 | 0.0 | 0.0 | 0.00 | 0.00 | 0.00 | 86 | 1014.9 |
| 20260905125227 | 79 | 353 | 0.0 | 0.0 | 0.00 | 0.00 | 0.00 | 87 | 1014.8 |
| 20260905124724 | 77 | 352 | 0.0 | 0.0 | 0.00 | 0.00 | 0.00 | 90 | 1014.7 |
| 20260905124220 | 77 | 354 | 0.0 | 0.0 | 0.00 | 0.00 | 0.00 | 91 | 1015.0 |
| 20260905123720 | 75 | 354 | 0.0 | 0.0 | 0.00 | 0.00 | 0.00 | 93 | 1014.6 |
| 20260905123217 | 75 | 356 | 0.0 | 0.0 | 0.00 | 0.00 | 0.00 | 95 | 1014.8 |
| 20260905122716 | 75 | 358 | 0.0 | 0.0 | 0.00 | 0.00 | 0.00 | 95 | 1015.1 |
| 20260905122211 | 75 | 356 | 0.0 | 0.0 | 0.00 | 0.00 | 0.00 | 95 | 1014.8 |
| 20260905121706 | 74 | 356 | 0.0 | 0.0 | 0.00 | 0.00 | 0.00 | 96 | 1014.9 |
| 20260905121202 | 74 | 356 | 0.0 | 0.0 | 0.00 | 0.00 | 0.00 | 96 | 1014.9 |
| 20260905120701 | 74 | 353 | 0.0 | 0.0 | 0.00 | 0.00 | 0.00 | 96 | 1014.9 |
| 20260905120156 | 74 | 0 | 0.0 | 0.9 | 0.00 | 0.00 | 0.00 | 96 | 1014.9 |
| 20260905115655 | 74 | 3 | 0.9 | 0.9 | 0.00 | 0.00 | 0.00 | 96 | 1014.8 |
| 20260905115151 | 74 | 351 | 0.0 | 0.0 | 0.00 | 0.00 | 0.00 | 96 | 1014.6 |
| 20260905114650 | 74 | 351 | 0.0 | 0.0 | 0.00 | 0.00 | 0.00 | 97 | 1014.6 |
| 20260905114148 | 74 | 351 | 0.0 | 0.0 | 0.00 | 0.00 | 0.00 | 97 | 1014.6 |
| 20260905113643 | 74 | 350 | 0.0 | 0.0 | 0.00 | 0.00 | 0.00 | 97 | 1014.4 |
| 20260905113139 | 74 | 350 | 0.0 | 0.0 | 0.00 | 0.00 | 0.00 | 97 | 1014.5 |
| 20260905112639 | 74 | 350 | 0.0 | 0.0 | 0.00 | 0.00 | 0.00 | 97 | 1014.6 |
| 20260905112135 | 74 | 351 | 0.0 | 0.0 | 0.00 | 0.00 | 0.00 | 97 | 1014.5 |
| 20260905111635 | 74 | 350 | 0.0 | 0.0 | 0.00 | 0.00 | 0.00 | 97 | 1014.3 |
| 20260905111134 | 74 | 350 | 0.0 | 0.0 | 0.00 | 0.00 | 0.00 | 97 | 1014.3 |
| 20260905110633 | 74 | 350 | 0.0 | 0.0 | 0.00 | 0.00 | 0.00 | 97 | 1014.2 |
| 20260905110128 | 74 | 350 | 0.0 | 0.9 | 0.00 | 0.00 | 0.00 | 97 | 1014.4 |
| 20260905105623 | 74 | 350 | 0.0 | 0.0 | 0.00 | 0.00 | 0.00 | 97 | 1014.0 |
| 20260905105122 | 74 | 350 | 0.0 | 0.0 | 0.00 | 0.00 | 0.00 | 97 | 1014.1 |
| 20260905104618 | 74 | 350 | 0.9 | 0.9 | 0.00 | 0.00 | 0.00 | 97 | 1014.0 |
| 20260905104113 | 74 | 350 | 0.0 | 0.0 | 0.00 | 0.00 | 0.00 | 97 | 1014.0 |
| 20260905103608 | 74 | 351 | 0.9 | 0.9 | 0.00 | 0.00 | 0.00 | 98 | 1014.1 |
| 20260905103104 | 74 | 352 | 0.9 | 0.9 | 0.00 | 0.00 | 0.00 | 98 | 1014.0 |
| 20260905102559 | 74 | 351 | 0.0 | 0.0 | 0.00 | 0.00 | 0.00 | 98 | 1014.0 |
| 20260905101023 | 73 | 351 | 0.0 | 0.0 | 0.00 | 0.00 | 0.00 | 98 | 1013.8 |
| 20260905100520 | 73 | 351 | 0.0 | 0.0 | 0.00 | 0.00 | 0.00 | 98 | 1013.8 |
| 20260905100020 | 74 | 351 | 0.0 | 0.0 | 0.00 | 0.00 | 0.00 | 98 | 1013.9 |
| 20260905095514 | 74 | 351 | 0.0 | 0.0 | 0.00 | 0.00 | 0.00 | 97 | 1013.9 |
| 20260905095009 | 74 | 351 | 0.0 | 0.0 | 0.00 | 0.00 | 0.00 | 97 | 1013.8 |
| 20260905094504 | 74 | 351 | 0.0 | 0.0 | 0.00 | 0.00 | 0.00 | 97 | 1013.6 |
| 20260905094003 | 74 | 351 | 0.0 | 0.0 | 0.00 | 0.00 | 0.00 | 97 | 1013.6 |
| 20260905093458 | 74 | 351 | 0.0 | 0.0 | 0.00 | 0.00 | 0.00 | 97 | 1013.8 |
| 20260905092954 | 74 | 351 | 0.0 | 0.0 | 0.00 | 0.00 | 0.00 | 97 | 1013.5 |
| 20260905092450 | 74 | 351 | 0.0 | 0.0 | 0.00 | 0.00 | 0.00 | 97 | 1013.4 |
| 20260905091945 | 74 | 351 | 0.0 | 0.0 | 0.00 | 0.00 | 0.00 | 97 | 1013.6 |
| 20260905091445 | 74 | 351 | 0.0 | 0.0 | 0.00 | 0.00 | 0.00 | 97 | 1013.7 |
| 20260905090944 | 74 | 351 | 0.0 | 0.0 | 0.00 | 0.00 | 0.00 | 97 | 1013.5 |
| 20260905090439 | 74 | 351 | 0.0 | 0.0 | 0.00 | 0.00 | 0.00 | 97 | 1013.4 |
| 20260905085938 | 74 | 351 | 0.0 | 0.0 | 0.00 | 0.00 | 0.00 | 96 | 1013.7 |
| 20260905085438 | 74 | 351 | 0.0 | 0.0 | 0.00 | 0.00 | 0.00 | 96 | 1013.6 |
| 20260905084934 | 75 | 351 | 0.0 | 0.0 | 0.00 | 0.00 | 0.00 | 96 | 1013.3 |
| 20260905084433 | 75 | 351 | 0.0 | 0.0 | 0.00 | 0.00 | 0.00 | 96 | 1013.5 |
| 20260905083928 | 74 | 351 | 0.0 | 0.0 | 0.00 | 0.00 | 0.00 | 96 | 1013.6 |
| 20260905083424 | 74 | 351 | 0.0 | 0.0 | 0.00 | 0.00 | 0.00 | 96 | 1013.4 |
| 20260905082920 | 75 | 351 | 0.0 | 0.0 | 0.00 | 0.00 | 0.00 | 96 | 1013.4 |
| 20260905082415 | 75 | 351 | 0.0 | 0.0 | 0.00 | 0.00 | 0.00 | 95 | 1013.4 |
| 20260905081910 | 75 | 351 | 0.0 | 0.0 | 0.00 | 0.00 | 0.00 | 95 | 1013.3 |
| 20260905081405 | 75 | 351 | 0.0 | 0.0 | 0.00 | 0.00 | 0.00 | 95 | 1013.3 |
| 20260905080904 | 75 | 351 | 0.0 | 0.0 | 0.00 | 0.00 | 0.00 | 95 | 1013.4 |
| 20260905080358 | 75 | 351 | 0.0 | 0.0 | 0.00 | 0.00 | 0.00 | 95 | 1013.1 |
| 20260905075858 | 75 | 351 | 0.0 | 0.0 | 0.00 | 0.00 | 0.00 | 95 | 1013.4 |
| 20260905075357 | 75 | 351 | 0.0 | 0.0 | 0.00 | 0.00 | 0.00 | 95 | 1013.3 |
| 20260905074856 | 75 | 351 | 0.0 | 0.0 | 0.00 | 0.00 | 0.00 | 95 | 1013.5 |
| 20260905074352 | 75 | 351 | 0.0 | 0.0 | 0.00 | 0.00 | 0.00 | 95 | 1013.5 |
| 20260905073848 | 75 | 351 | 0.0 | 0.0 | 0.00 | 0.00 | 0.00 | 94 | 1013.3 |
| 20260905073343 | 75 | 351 | 0.0 | 0.0 | 0.00 | 0.00 | 0.00 | 94 | 1013.4 |
| 20260905072838 | 75 | 351 | 0.0 | 0.0 | 0.00 | 0.00 | 0.00 | 94 | 1013.5 |
| 20260905072332 | 75 | 351 | 0.0 | 0.0 | 0.00 | 0.00 | 0.00 | 94 | 1013.5 |
| 20260905071829 | 75 | 351 | 0.0 | 0.0 | 0.00 | 0.00 | 0.00 | 94 | 1013.4 |
| 20260905071325 | 76 | 351 | 0.0 | 0.0 | 0.00 | 0.00 | 0.00 | 93 | 1013.7 |
| 20260905070819 | 76 | 351 | 0.0 | 0.0 | 0.00 | 0.00 | 0.00 | 93 | 1013.6 |
| 20260905070316 | 76 | 351 | 0.0 | 0.0 | 0.00 | 0.00 | 0.00 | 93 | 1013.6 |
| 20260905065815 | 76 | 351 | 0.0 | 0.0 | 0.00 | 0.00 | 0.00 | 93 | 1013.6 |
| 20260905065313 | 76 | 351 | 0.0 | 0.0 | 0.00 | 0.00 | 0.00 | 93 | 1013.6 |
| 20260905064809 | 76 | 351 | 0.0 | 0.0 | 0.00 | 0.00 | 0.00 | 93 | 1013.6 |
| 20260905064304 | 76 | 351 | 0.0 | 0.0 | 0.00 | 0.00 | 0.00 | 93 | 1013.7 |
| 20260905063803 | 76 | 351 | 0.0 | 0.0 | 0.00 | 0.00 | 0.00 | 92 | 1013.8 |
| 20260905063259 | 76 | 351 | 0.0 | 0.0 | 0.00 | 0.00 | 0.00 | 92 | 1013.8 |
| 20260905062755 | 76 | 351 | 0.0 | 0.0 | 0.00 | 0.00 | 0.00 | 92 | 1013.8 |
| 20260905062255 | 76 | 351 | 0.0 | 0.0 | 0.00 | 0.00 | 0.00 | 92 | 1013.9 |
| 20260905061750 | 76 | 351 | 0.0 | 0.0 | 0.00 | 0.00 | 0.00 | 91 | 1013.9 |
| 20260905061250 | 77 | 351 | 0.0 | 0.0 | 0.00 | 0.00 | 0.00 | 91 | 1013.9 |
| 20260905060744 | 77 | 351 | 0.0 | 0.0 | 0.00 | 0.00 | 0.00 | 91 | 1013.9 |
| 20260905060241 | 77 | 351 | 0.0 | 0.0 | 0.00 | 0.00 | 0.00 | 90 | 1013.8 |
| 20260905055740 | 77 | 351 | 0.0 | 0.0 | 0.00 | 0.00 | 0.00 | 90 | 1013.7 |
| 20260905055235 | 77 | 351 | 0.0 | 0.0 | 0.00 | 0.00 | 0.00 | 90 | 1013.9 |
| 20260905054730 | 77 | 351 | 0.0 | 0.0 | 0.00 | 0.00 | 0.00 | 90 | 1014.0 |
| 20260905054226 | 77 | 351 | 0.0 | 0.9 | 0.00 | 0.00 | 0.00 | 90 | 1014.1 |
| 20260905053725 | 77 | 351 | 0.9 | 0.9 | 0.00 | 0.00 | 0.00 | 90 | 1014.1 |
| 20260905053221 | 77 | 351 | 0.0 | 0.0 | 0.00 | 0.00 | 0.00 | 90 | 1014.1 |